Regional Weather Roundup
Issued by NWS

Home | Current Version | Previous Version | Text Only | Print | Product List | Glossary Off
Versions: 1 2 3 4 5 6 7 8 9 10 11 12 13 14 15 16 17 18 19 20 21 22 23 24 25 26 27 28 29 30 31 32 33 34 35 36 37 38 39 40 41 42 43 44 45 46 47 48 49 50

000
ASUS43 KDTX 301310
RWRMI
MICHIGAN HOURLY REGIONAL WEATHER ROUNDUP
NATIONAL WEATHER SERVICE DETROIT/PONTIAC MI
900 AM EDT SAT AUG 30 2014

NOTE: "FAIR" INDICATES FEW OR NO CLOUDS BELOW 12,000 FEET WITH NO
SIGNIFICANT WEATHER AND/OR OBSTRUCTION TO VISIBILITY.

MIZ047>049-052>055-059>063-066>070-074>076-081>083-301400-
SOUTHEAST LOWER MICHIGAN

CITY           SKY/WX    TMP DP  RH WIND       PRES   REMARKS
ADRIAN         MOSUNNY   74  65  73 SW12      29.98S
ALMA           PTSUNNY   73  66  80 S9        29.90R
ANN ARBOR      SUNNY     71  63  75 S8        29.97S
BAD AXE        PTSUNNY   73  65  78 S13       29.92F
DETROIT CITY   MOSUNNY   77  65  66 SW10      29.97F
DETROIT        PTSUNNY   74  65  73 S10       29.98S
FLINT          MOSUNNY   76  64  66 S12       29.93S
GROSSE ILE     MOSUNNY   75  68  78 S13       29.97S
HILLSDALE      PTSUNNY   71  68  89 S5        29.97F
HOWELL         SUNNY     71  65  80 S9        29.95S

CITY           SKY/WX    TMP DP  RH WIND       PRES   REMARKS
JACKSON        LGT RAIN  73  65  75 SW12      29.96R
LAMBERTVILLE   SUNNY     73  64  73 S9        29.98F
LANSING        MOSUNNY   74  65  73 S14       29.92R
LAPEER         NOT AVBL
MASON          LGT RAIN  72  65  79 S5        29.94S
MONROE         SUNNY     73  64  73 S8        29.97S
MT. CLEMENS    PTSUNNY   76  65  69 S8        29.95F
PONTIAC        PTSUNNY   72  63  73 S8        29.96F
PORT HOPE        N/A     73  64  73 VRB5      29.89F
PORT HURON     SUNNY     72  66  83 S10       29.97F
TRI CITIES     MOSUNNY   73  65  75 S12       29.89S
YPSILANTI      SUNNY     76  65  68 S7        29.98S
$$
MIZ043>046-050>051-056>058-064>065-071>073-077>080-301400-
SOUTHWEST LOWER MICHIGAN

CITY           SKY/WX    TMP DP  RH WIND       PRES   REMARKS
BATTLE CREEK   CLOUDY    74  66  76 S12       29.93S
BENTON HARBOR  CLOUDY    73  69  87 S9        29.89R
BIG RAPIDS     CLOUDY    69  69 100 SE6       29.86R FOG
COLDWATER      PTSUNNY   72  68  89 S8        29.95S
HOLLAND        CLOUDY    75  69  81 S10       29.88R
GRAND RAPIDS   CLOUDY    72  71  97 S10       29.89R
KALAMAZOO      CLOUDY    72  68  87 S9        29.92S
MARSHALL       CLOUDY    69  67  93 S3        29.93S
MUSKEGON       CLOUDY    74  68  81 S17G26    29.86R
$$
MIZ016>042-301400-
NORTHERN LOWER MICHIGAN

CITY           SKY/WX    TMP DP  RH WIND       PRES   REMARKS
ALPENA         CLOUDY    67  63  87 S10       29.85F
BEAVER ISLAND  RAIN      68  67  96 CALM      29.78F
BELLAIRE       HVY RAIN  69  67  91 SE7       29.80F
CADILLAC       CLOUDY    69  68  99 S8        29.84F
CHARLEVOIX     RAIN      71  69  94 S8        29.82S
FRANKFORT      CLOUDY    72  67  86 S8        29.79R
GAYLORD        RAIN      67  66  97 SW10      29.85S FOG
GRAYLING       CLOUDY    69  69  99 CALM      29.87S
HARBOR SPRINGS HVY RAIN  71  67  87 S3        29.81S
HOUGHTON LAKE  CLOUDY    68  66  93 S5        29.87F
MANISTEE       CLOUDY    70  66  88 S3        29.81S
OSCODA         CLOUDY    70  65  84 S8        29.87F
PELLSTON       LGT RAIN  69  68  96 SE3       29.81S FOG
TRAVERSE CITY  LGT RAIN  72  68  87 VRB5      29.79S FOG
$$
MIZ007>008-015-301400-
EASTERN UPPER MICHIGAN

CITY           SKY/WX    TMP DP  RH WIND       PRES   REMARKS
KINROSS        CLOUDY    64  64 100 E3        29.80F
MACKINAC ISLAN CLOUDY    68  67  98 S6        29.80S
NEWBERRY       FOG       67  67  99 S7        29.78S VSB 1
S. S. MARIE    CLOUDY    64  62  93 E5        29.80S FOG
$$
MIZ004>006-011>014-085-301400-
CENTRAL UPPER MICHIGAN

CITY           SKY/WX    TMP DP  RH WIND       PRES   REMARKS
MANISTIQUE     DRZL/FOG  66  66 100 CALM      29.76F VSB 1/4
ESCANABA       CLOUDY    66  64  94 E5        29.75F
MENOMINEE      CLOUDY    66  64  94 SE5       29.74S
SAWYER-GWINN   RAIN      63  63 100 N3        29.77F
$$
MIZ001>003-009>011-084-301400-
WESTERN UPPER MICHIGAN

CITY           SKY/WX    TMP DP  RH WIND       PRES   REMARKS
IRON MOUNTAIN  RAIN      65  63  93 CALM      29.75F FOG
HOUGHTON       LGT RAIN  60  57  89 NE7       29.79R
COPPER HARBOR    N/A     55  53  93 NE9       29.80R
$$

ABBREVIATIONS USED IN REMARKS
   TC - TEMPERATURE IN CELSIUS
  WCI - WIND CHILL INDEX
   HX - HEAT INDEX
  VSB - VISIBILITY



USA.gov is the U.S. government's official web portal to all federal, state and local government web resources and services.